Weather History for Hurlburt Field, FL

Change the Weather History Date:

Tuesday, December 11, 2012

  Actual Average Record
Temperature  
Mean Temperature 50 °F -  
Max Temperature 57 °F 62 °F 73 °F (1996)
Min Temperature 42 °F 43 °F 35 °F (2014)
Degree Days  
Heating Degree Days 16    
Moisture  
Dew Point 45 °F    
Average Humidity 88    
Maximum Humidity 100    
Minimum Humidity 81    
Precipitation  
Precipitation 0.13 in - - ()
Sea Level Pressure  
Sea Level Pressure 30.04 in    
Wind  
Wind Speed 12 mph (NNE)    
Max Wind Speed 17 mph    
Max Gust Speed -    
Visibility 10 miles    
Events Rain    
Averages and records for this station are not official NWS values.
T = Trace of Precipitation, MM = Missing Value Source: NWS Daily Summary

Daily Weather History Graph

Daily Weather History Graph

Search for Another Location

Airport:

Trip Planner

Search our weather history database for the weather conditions in past years. The results will help you decide how hot, cold, wet, or windy it might be!

Date:

Astronomy

Dec. 11, 2012 Rise Set
Actual Time 6:33 AM CST 4:46 PM CST
Civil Twilight 6:07 AM CST 5:13 PM CST
Nautical Twilight 5:37 AM CST 5:43 PM CST
Astronomical Twilight 5:08 AM CST 6:12 PM CST
Moon 4:31 AM CST (12/11) 3:22 PM CST (12/11)
Length of Visible Light 11h 05m
Length of Day
10h 12m
Waning Crescent, 4% of the Moon is Illuminated
Dec 11
Waning Crescent
Dec 13
New
Dec 19
First Quarter
Dec 28
Full
Jan 4
Last Quarter

Hourly Weather History & Observations

Time (CST) Temp. Windchill Dew Point Humidity Pressure Visibility Wind Dir Wind Speed Gust Speed Precip Events Conditions
12:55 AM 57.0 °F - 56.3 °F 97% 29.89 in 10.0 mi North 15.0 mph - N/A   Overcast
1:55 AM 54.3 °F - 53.1 °F 95% 29.89 in 10.0 mi North 15.0 mph - N/A   Mostly Cloudy
2:04 AM 53.6 °F - 53.6 °F 100% 29.90 in 10.0 mi North 17.3 mph - N/A   Overcast
3:55 AM 51.6 °F - 49.5 °F 92% 29.91 in 10.0 mi North 12.7 mph - N/A   Overcast
5:55 AM 49.3 °F - 48.2 °F 96% 29.96 in 10.0 mi North 12.7 mph - N/A   Overcast
6:55 AM 48.7 °F - 46.6 °F 92% 30.00 in 10.0 mi NNE 13.8 mph - N/A   Overcast
7:37 AM 48.2 °F - 46.4 °F 93% 30.01 in 10.0 mi North 11.5 mph - N/A   Overcast
8:55 AM 50.0 °F - 46.4 °F 87% 30.04 in 10.0 mi NNE 10.4 mph - N/A   Mostly Cloudy
9:55 AM 50.0 °F - 44.6 °F 82% 30.06 in 10.0 mi North 12.7 mph - N/A   Mostly Cloudy
10:55 AM 50.0 °F - 44.6 °F 82% 30.06 in 10.0 mi NNE 10.4 mph - N/A   Overcast
11:55 AM 51.8 °F - 46.4 °F 82% 30.01 in 10.0 mi North 11.5 mph - N/A   Mostly Cloudy
12:55 PM 51.8 °F - 46.4 °F 82% 30.03 in 10.0 mi North 9.2 mph - N/A   Overcast
1:41 PM 50.0 °F - 44.6 °F 82% 30.00 in 10.0 mi North 11.5 mph - N/A   Overcast
1:55 PM 50.2 °F - 45.0 °F 82% 30.01 in 10.0 mi North 11.5 mph - N/A   Overcast
2:25 PM 50.0 °F - 44.6 °F 82% 30.01 in 6.0 mi North 10.4 mph - N/A Rain Light Rain
2:34 PM 50.0 °F - 44.6 °F 82% 30.02 in 7.0 mi North 11.5 mph - N/A   Overcast
2:46 PM 50.0 °F - 44.6 °F 82% 30.02 in 10.0 mi North 12.7 mph - N/A Rain Light Rain
2:55 PM 49.5 °F - 45.1 °F 85% 30.03 in 10.0 mi North 13.8 mph - 0.00 in Rain Light Rain
2:58 PM 50.0 °F - 44.6 °F 82% 30.02 in 10.0 mi NNE 11.5 mph - N/A   Overcast
3:55 PM 49.5 °F - 44.6 °F 83% 30.04 in 10.0 mi North 10.4 mph - 0.00 in   Overcast
4:20 PM 48.2 °F - 44.6 °F 87% 30.05 in 10.0 mi North 9.2 mph - N/A   Overcast
4:47 PM 48.2 °F - 44.6 °F 87% 30.04 in 10.0 mi North 11.5 mph - N/A   Overcast
4:55 PM 48.4 °F - 43.7 °F 84% 30.04 in 10.0 mi NNE 12.7 mph - N/A   Overcast
5:55 PM 48.0 °F - 42.4 °F 81% 30.06 in 10.0 mi North 11.5 mph - N/A   Overcast
6:55 PM 47.3 °F - 42.1 °F 82% 30.11 in 10.0 mi North 10.4 mph - N/A   Mostly Cloudy
7:49 PM 46.4 °F 40.7 °F 41.0 °F 81% 30.14 in 10.0 mi North 12.7 mph - N/A Rain Light Rain
7:55 PM 46.2 °F 40.8 °F 41.5 °F 84% 30.14 in 10.0 mi North 11.5 mph - 0.00 in Rain Light Rain
8:55 PM 44.4 °F 39.5 °F 43.2 °F 95% 30.13 in 10.0 mi NNE 9.2 mph - 0.01 in Rain Light Rain
9:55 PM 43.9 °F 39.3 °F 43.3 °F 98% 30.14 in 10.0 mi NNE 8.1 mph - 0.04 in Rain Light Rain
10:55 PM 43.5 °F 37.9 °F 43.5 °F 100% 30.13 in 8.0 mi NNE 10.4 mph - 0.06 in Rain Light Rain
11:45 PM 42.8 °F 39.3 °F 42.8 °F 100% 30.13 in 10.0 mi NE 5.8 mph - N/A   Mostly Cloudy
11:51 PM 42.8 °F 38.0 °F 42.8 °F 100% 30.12 in 10.0 mi NNE 8.1 mph - N/A Rain Light Rain
11:55 PM 43.5 °F 39.4 °F 43.5 °F 100% 30.12 in 10.0 mi North 6.9 mph - 0.02 in Rain Light Rain